Simultaneous Nadir Overpasses (SNOs) Predictions

Prediction of SNOs between LANDSAT-8 and NOAA-19 Satellite Orbit:

Table of predicted SNOs for the next 14.0 days since TLE Epoch: 4/15/2016
Index Date (LANDSAT-8) Time (LANDSAT-8) Lat,Lon (LANDSAT-8) SZA (LANDSAT-8 ) Date (NOAA-19) Time (NOAA-19) Lat,Lon (NOAA-19) SZA (NOAA-19 ) Distance(km) Time Diff (sec)
1 04/16/2016 16:56:06 -74.50, 110.03 115.99 04/16/2016 16:55:20 -74.51, 110.09 115.98 2.19 46
2 04/16/2016 17:45:33 74.43, -82.50 63.92 04/16/2016 17:46:17 74.46, -82.51 63.96 3.68 44
3 04/18/2016 22:29:48 74.50,-153.39 63.24 04/18/2016 22:29:23 74.52,-153.38 63.25 1.26 25
4 04/18/2016 23:19:17 -74.43, 14.06 116.86 04/18/2016 23:20:26 -74.45, 14.05 116.83 1.82 69
5 04/21/2016 04:03:32 -74.50, -56.83 117.53 04/21/2016 04:03:32 -74.49, -56.79 117.54 2.47 0
6 04/21/2016 04:53:11 73.80, 109.20 61.73 04/21/2016 04:54:15 73.80, 112.29 61.81 95.95 64
7 04/23/2016 08:47:47 -74.57,-127.74 118.19 04/23/2016 08:46:39 -74.58,-127.77 118.19 1.26 68
8 04/23/2016 09:37:13 74.49, 39.71 61.72 04/23/2016 09:37:33 74.49, 39.75 61.72 1.24 20
9 04/25/2016 14:21:28 74.55, -31.22 61.07 04/25/2016 14:20:39 74.55, -31.16 61.07 1.63 49
10 04/25/2016 15:10:57 -74.49, 136.26 119.02 04/25/2016 15:11:43 -74.49, 136.26 119.01 0.14 46
11 04/27/2016 19:55:12 -74.55, 65.33 119.65 04/27/2016 19:54:49 -74.55, 65.37 119.65 1.16 23
